TimeCDT,TemperatureF,Dew PointF,Humidity,Sea Level PressureIn,VisibilityMPH,Wind Direction,Wind SpeedMPH,Gust SpeedMPH,PrecipitationIn,Events,Conditions,WindDirDegrees,DateUTC
12:53 AM,64.9,39.0,39,30.03,10.0,SE,8.1,-,N/A,,Clear,130,2011-10-05 05:53:00
1:53 AM,64.9,39.9,40,30.03,10.0,ESE,6.9,-,N/A,,Clear,120,2011-10-05 06:53:00
2:53 AM,64.9,41.0,42,30.03,10.0,ESE,6.9,-,N/A,,Clear,120,2011-10-05 07:53:00
3:53 AM,64.9,42.1,43,30.03,10.0,ESE,6.9,-,N/A,,Clear,120,2011-10-05 08:53:00
4:53 AM,64.9,43.0,45,30.04,10.0,ESE,9.2,-,N/A,,Clear,120,2011-10-05 09:53:00
6:53 AM,64.9,45.0,48,30.06,10.0,SE,9.2,-,N/A,,Clear,130,2011-10-05 11:53:00
7:53 AM,64.0,45.0,50,30.06,10.0,SE,8.1,-,N/A,,Clear,140,2011-10-05 12:53:00
8:53 AM,66.0,45.0,47,30.08,10.0,SE,9.2,-,N/A,,Clear,130,2011-10-05 13:53:00
9:53 AM,69.1,46.0,44,30.08,10.0,SE,15.0,-,N/A,,Clear,130,2011-10-05 14:53:00
10:53 AM,73.9,46.9,38,30.08,10.0,South,8.1,-,N/A,,Clear,170,2011-10-05 15:53:00
11:53 AM,79.0,46.0,31,30.08,10.0,South,6.9,-,N/A,,Clear,170,2011-10-05 16:53:00
12:53 PM,84.0,48.0,28,30.06,10.0,SSE,8.1,-,N/A,,Clear,150,2011-10-05 17:53:00
1:53 PM,87.1,46.0,24,30.03,10.0,South,8.1,-,N/A,,Clear,180,2011-10-05 18:53:00
2:53 PM,88.0,45.0,22,30.01,10.0,South,11.5,18.4,N/A,,Clear,180,2011-10-05 19:53:00
3:53 PM,88.0,44.1,22,30.00,10.0,South,12.7,-,N/A,,Clear,170,2011-10-05 20:53:00
6:53 PM,75.9,46.0,35,29.99,10.0,SE,9.2,-,N/A,,Clear,140,2011-10-05 23:53:00
7:53 PM,73.0,46.0,38,30.01,10.0,SE,9.2,-,N/A,,Clear,130,2011-10-06 00:53:00
8:53 PM,72.0,46.0,40,30.02,10.0,SE,10.4,-,N/A,,Clear,140,2011-10-06 01:53:00
9:53 PM,71.1,45.0,39,30.03,10.0,SSE,10.4,-,N/A,,Clear,150,2011-10-06 02:53:00
10:53 PM,69.1,45.0,42,30.04,10.0,ESE,6.9,-,N/A,,Clear,120,2011-10-06 03:53:00
11:53 PM,66.9,45.0,45,30.04,10.0,SE,6.9,-,N/A,,Clear,130,2011-10-06 04:53:00